AirNav   Phillips 66 Aviation Fuel
 
 299 users online  

55G Arnold Field Airport
Croswell, Michigan, USA

GOING TO CROSWELL?


FAA INFORMATION EFFECTIVE 06 DECEMBER 2018

Location

FAA Identifier: 55G
Lat/Long: 43-17-52.0800N / 082-36-28.3100W
43-17.868000N / 082-36.471833W
43.2978000 / -82.6078639
(estimated)
Elevation: 784 ft. / 239 m (estimated)
Variation: 07W (1985)
From city: 2 miles NE of CROSWELL, MI
Time zone: UTC -5 (UTC -4 during Daylight Saving Time)
Zip code: 48422

Airport Operations

Airport use: Open to the public
Activation date: 05/1968
Control tower: no
ARTCC: CLEVELAND CENTER
FSS: LANSING FLIGHT SERVICE STATION
NOTAMs facility: LAN (NOTAM-D service available)
Attendance: UNATNDD
Wind indicator: yes
Segmented circle: no

Airport Communications

CTAF/UNICOM: 122.8

Airport Services

Parking: hangars and tiedowns
Bottled oxygen: NONE
Bulk oxygen: NONE

Runway Information

Runway 18/36

Dimensions: 2570 x 140 ft. / 783 x 43 m
Surface: turf, in good condition
Runway edge markings: 18/36 MKD WITH 12 INCH YELLOW CONES; DSPLCD THLDS MKD WITH THREE 12 INCH YELLOW CONES EACH SIDE.
RUNWAY 18  RUNWAY 36
Latitude: 43-18.080000N43-17.657500N
Longitude: 082-36.486667W082-36.457000W
Elevation: 784.0 ft.780.0 ft.
Traffic pattern: leftleft
Runway heading: 184 magnetic, 177 true004 magnetic, 357 true
Displaced threshold: 600 ft.570 ft.
Runway end identifier lights: nono
Obstructions: 70 ft. trees, 1250 ft. from runway, 17:1 slope to clear
APCH RATIO 25:1 AT DSPLCD THLD.
29 ft. pline, lighted, 11 ft. from runway, 97 ft. left of centerline
APCH RATIO AT DSPLCD THLD 20:1; DSPLCD THLD 5 FT ABOVE END OF RY.

Airport Ownership and Management from official FAA records

Ownership: Privately-owned
Owner: ROBERT PERRY
4343 CROSWELL RD
CROSWELL, MI 48422
Phone 810-679-2487
Manager: BART PERRY
4343 CROSWELL ROAD
CROSWELL, MI 48422
Phone (810) 304-1018

Airport Operational Statistics

Aircraft based on the field: 6
Single engine airplanes: 4
Ultralights: 2
    
Aircraft operations: 200/year *
50% transient general aviation
50% local general aviation
* for 12-month period ending 31 December 2015

Additional Remarks

ARPT CLSD NOV-MAR. WINTER OPNS SKIS ONLY.

Instrument Procedures

There are no published instrument procedures at 55G.

Some nearby airports with instrument procedures:

77G - Marlette Airport (21 nm W)
KPHN - St Clair County International Airport (23 nm S)
D95 - Dupont-Lapeer Airport (32 nm SW)
KBAX - Huron County Memorial Airport (33 nm NW)
D98 - Romeo State Airport (34 nm SW)
 
Loc | Ops | Rwys | IFR | FBO | Links
Com | Nav | Svcs | Stats | Notes


 
Area around 55G (Arnold Field Airport)
 
Road maps at: MapQuest Bing Google
 
Aerial photo
No photo
 
Sectional chart

 
Airport distance calculator
Flying to Arnold Field Airport? Find the distance to fly.

From to 55G

Sunrise and sunset
Times for 19-Dec-2018
 Local
(UTC-5)
 Zulu
(UTC)
Morning civil twilight07:2712:27
Sunrise07:5912:59
Sunset16:5621:56
Evening civil twilight17:2822:28

Current date and time
Zulu (UTC)  19-Dec-2018 09:18:11
Local (UTC-5)  19-Dec-2018 04:18:11
 
METAR
CYZR 
22nm SE 
190800Z AUTO 20008KT 9SM CLR M02/M03 A3003 RMK SLP179
KPHN 
23nm S 
190855Z AUTO 00000KT 4SM BR CLR M03/M04 A3003 RMK AO2
KD95 
32nm SW 
190856Z AUTO 19004KT 10SM CLR M01/M04 A3000 RMK AO2 T10151040
KBAX 
33nm NW 
190856Z AUTO 20006KT 10SM CLR M01/M04 A2997 RMK AO2 T10121040
KCFS 
38nm W 
190855Z AUTO 21005KT 10SM CLR M01/M03 A2998 RMK AO2 T10131032
KMTC 
42nm S 
190856Z AUTO 20005KT 10SM CLR M02/M02 A3002 RMK AO2 SLP177 T10201020 55011 $
KP58 
44nm N 
190851Z AUTO 22009G16KT 01/M05 A2995 RMK AO1 SLP152 T00061050 58007
TAF
CYZR 
22nm SE 
181938Z 1820/1903 32008KT P6SM SCT025 TEMPO 1820/1822 BKN025 RMK FCST BASED ON AUTO OBS. NXT FCST WILL BE ISSUED AT 190845Z
NOTAMs
Click for the latest NOTAMs
NOTAMs are issued by the DoD/FAA and will open in a separate window not controlled by AirNav.

 

 
 

Would you like to see your business listed on this page?

 If your business provides an interesting product or service to pilots, flight crews, aircraft, or users of the Arnold Field Airport, you should consider listing it here.  To start the listing process, click on the button below
 
Add a business
 

Other Pages about Arnold Field Airport

Page from the Michigan Airport Directory (PDF)
 
Update a link
 
Copyright © AirNav, LLC. All rights reserved. Privacy Policy  Contact